Desert Center, CA

6:40 PM PST on February 26, 2017 (GMT -0800)
Blythe

Weather History for KBLH - May, 2013

Change the Weather History Date:

Thursday, May 23, 2013

  Actual Average Record
Temperature  
Mean Temperature 80 °F -  
Max Temperature 96 °F 97 °F 109 °F (2001)
Min Temperature 66 °F 66 °F 50 °F (1971)
Cooling Degree Days 16    
Growing Degree Days 30 (Base 50)    
Moisture  
Dew Point 23 °F    
Average Humidity 14    
Maximum Humidity 26    
Minimum Humidity 4    
Precipitation  
Precipitation 0.00 in - - ()
Sea Level Pressure  
Sea Level Pressure 29.69 in    
Wind  
Wind Speed 10 mph (SSW)    
Max Wind Speed 18 mph    
Max Gust Speed 29 mph    
Visibility 10 miles    
Events      
Averages and records for this station are not official NWS values.
T = Trace of Precipitation, MM = Missing Value Source: NWS Daily Summary

Daily Weather History Graph

Daily Weather History Graph

Search for Another Location

Airport or City:

Trip Planner

Search our weather history database for the weather conditions in past years. The results will help you decide how hot, cold, wet, or windy it might be!

Date:

Astronomy

May. 23, 2013 Rise Set
Actual Time 5:33 AM PDT 7:38 PM PDT
Civil Twilight 5:05 AM PDT 8:06 PM PDT
Nautical Twilight 4:30 AM PDT 8:40 PM PDT
Astronomical Twilight 3:54 AM PDT 9:17 PM PDT
Moon 6:19 PM PDT (5/23) 4:16 AM PDT (5/23)
Length of Visible Light 15h 01m
Length of Day
14h 05m
Waxing Gibbous, 97% of the Moon is Illuminated
May 23
Waxing Gibbous
May 24
Full
May 31
Last Quarter
Jun 8
New
Jun 16
First Quarter

Hourly Weather History & Observations

Time (PDT) Temp. Dew Point Humidity Pressure Visibility Wind Dir Wind Speed Gust Speed Precip Events Conditions
12:52 AM 75.0 °F 30.9 °F 20% 29.62 in 10.0 mi SSW 12.7 mph - N/A   Clear
1:52 AM 75.9 °F 28.0 °F 17% 29.62 in 10.0 mi SW 10.4 mph - N/A   Clear
2:52 AM 73.9 °F 23.0 °F 15% 29.64 in 10.0 mi SSW 5.8 mph - N/A   Clear
3:52 AM 71.1 °F 24.1 °F 17% 29.65 in 10.0 mi South 5.8 mph - N/A   Clear
4:52 AM 68.0 °F 27.0 °F 21% 29.66 in 10.0 mi South 6.9 mph - N/A   Clear
5:52 AM 66.0 °F 28.9 °F 25% 29.68 in 10.0 mi Calm Calm - N/A   Clear
6:52 AM 69.1 °F 33.1 °F 26% 29.70 in 10.0 mi SW 3.5 mph - N/A   Clear
7:52 AM 71.1 °F 27.0 °F 19% 29.72 in 10.0 mi Calm Calm - N/A   Clear
8:52 AM 78.1 °F 30.9 °F 18% 29.73 in 10.0 mi Calm Calm - N/A   Clear
9:52 AM 82.9 °F 24.1 °F 12% 29.74 in 10.0 mi SSW 10.4 mph - N/A   Clear
10:52 AM 87.1 °F 21.9 °F 9% 29.73 in 10.0 mi SSE 11.5 mph - N/A   Clear
11:52 AM 90.0 °F 16.0 °F 7% 29.72 in 10.0 mi SW 10.4 mph 20.7 mph N/A   Clear
12:52 PM 91.9 °F 5.0 °F 4% 29.72 in 10.0 mi SSW 13.8 mph 26.5 mph N/A   Clear
1:52 PM 93.9 °F 3.0 °F 4% 29.71 in 10.0 mi South 16.1 mph 23.0 mph N/A   Clear
2:52 PM 95.0 °F 6.1 °F 4% 29.70 in 10.0 mi SW 18.4 mph 26.5 mph N/A   Clear
3:52 PM 95.0 °F 10.0 °F 4% 29.68 in 10.0 mi SSW 16.1 mph 28.8 mph N/A   Clear
4:52 PM 93.9 °F 12.9 °F 5% 29.67 in 10.0 mi SW 16.1 mph 19.6 mph N/A   Clear
5:52 PM 93.9 °F 17.1 °F 6% 29.66 in 10.0 mi SSW 18.4 mph 26.5 mph N/A   Clear
6:52 PM 91.9 °F 17.1 °F 6% 29.66 in 10.0 mi WSW 17.3 mph - N/A   Clear
7:52 PM 88.0 °F 21.0 °F 9% 29.69 in 10.0 mi WSW 13.8 mph - N/A   Clear
8:52 PM 84.9 °F 28.0 °F 13% 29.69 in 10.0 mi SW 13.8 mph - N/A   Clear
9:52 PM 81.0 °F 34.0 °F 18% 29.72 in 10.0 mi SW 10.4 mph - N/A   Clear
10:52 PM 77.0 °F 36.0 °F 23% 29.74 in 10.0 mi SE 6.9 mph - N/A   Clear
11:52 PM 75.0 °F 37.9 °F 26% 29.74 in 10.0 mi South 8.1 mph - N/A   Clear